This is the latest recevied weather packets stored in our database for station/object KBTL-WX. If no packets are shown the sender has not sent any weather packets the latest 10 day(s).
| Time | Temp. | Humidity | Pressure | Rain* | Wind** | Luminosity | Snow |
|---|---|---|---|---|---|---|---|
| 1777880717 | 8.33° C | 72% | 972.7 hPa | 0 mm | - | - | - |
| 1777879832 | 8.89° C | 72% | 972.7 hPa | 0 mm | - | - | - |
| 1777878917 | 8.33° C | 72% | 972.7 hPa | 0 mm | - | - | - |
| 1777878036 | 8.33° C | 72% | 972.7 hPa | 0 mm | - | - | - |
| 1777877116 | 8.33° C | 71% | 973.8 hPa | 0 mm | - | - | - |
| 1777876234 | 8.33° C | 71% | 973.8 hPa | 0 mm | - | - | - |
| 1777875317 | 8.33° C | 71% | 973.8 hPa | 0 mm | - | - | - |
| 1777874441 | 8.33° C | 71% | 973.8 hPa | 0 mm | - | - | - |
| 1777873512 | 8.33° C | 71% | 974.7 hPa | 0 mm | - | - | - |
| 1777872631 | 8.33° C | 71% | 974.2 hPa | 0 mm | - | - | - |
| 1777871716 | 8.33° C | 71% | 974.2 hPa | 0 mm | - | - | - |
| 1777870841 | 8.33° C | 71% | 974.2 hPa | 0 mm | - | - | - |
| 1777869926 | 8.33° C | 70% | 974.8 hPa | 0 mm | - | - | - |
| 1777869035 | 8.33° C | 73% | 974.7 hPa | 0 mm | - | - | - |
| 1777868113 | 7.78° C | 73% | 974.7 hPa | 0 mm | - | - | - |
| 1777867242 | 8.33° C | 73% | 974.7 hPa | 0 mm | - | - | - |
| 1777866313 | 8.33° C | 70% | 975.3 hPa | 0 mm | - | - | - |
| 1777865433 | 8.33° C | 72% | 975.6 hPa | 0 mm | - | - | - |
| 1777864513 | 8.33° C | 72% | 975.6 hPa | 0 mm | - | - | - |
| 1777863638 | 8.33° C | 72% | 975.6 hPa | 0 mm | - | - | - |
| 1777862713 | 8.33° C | 69% | 975.4 hPa | 0 mm | - | - | - |
| 1777861828 | 8.89° C | 74% | 975.5 hPa | 0 mm | - | - | - |
| 1777860913 | 8.89° C | 74% | 975.5 hPa | 0 mm | - | - | - |
| 1777860038 | 8.89° C | 74% | 975.5 hPa | 0 mm | - | - | - |
| 1777859113 | 9.44° C | 67% | 976 hPa | 0 mm | - | - | - |
* Rain latest hour (hover to see other rain measurements)
** Current wind speed in m/s (hover to see current wind gust speed)